This is the latest recevied weather packets stored in our database for station/object KE8URB. If no packets are shown the sender has not sent any weather packets the latest 10 day(s).
| Time | Temp. | Humidity | Pressure | Rain* | Wind** | Luminosity | Snow |
|---|---|---|---|---|---|---|---|
| 1787399972 | 17.78° C | 99% | 1015.7 hPa | 0 mm | - | 21 W/m² | - |
| 1787399667 | 17.78° C | 99% | 1015.5 hPa | 0 mm | - | 19 W/m² | - |
| 1787399367 | 17.78° C | 99% | 1015.6 hPa | 0 mm | - | 16 W/m² | - |
| 1787399066 | 17.78° C | 99% | 1015.5 hPa | 0 mm | - | 15 W/m² | - |
| 1787398761 | 17.22° C | 99% | 1015.5 hPa | 0 mm | - | 14 W/m² | - |
| 1787398458 | 17.22° C | 99% | 1015.8 hPa | 0 mm | - | 14 W/m² | - |
| 1787398154 | 17.22° C | 99% | 1015.4 hPa | 0 mm | - | 13 W/m² | - |
| 1787397854 | 17.22° C | 99% | 1015.4 hPa | 0 mm | - | 13 W/m² | - |
| 1787397549 | 17.22° C | 99% | 1015.5 hPa | 0 mm | - | 10 W/m² | - |
| 1787397244 | 16.67° C | 99% | 1015.4 hPa | 0 mm | - | 11 W/m² | - |
| 1787396938 | 16.67° C | 99% | 1015.4 hPa | 0 mm | - | 7 W/m² | - |
| 1787396634 | 16.67° C | 99% | 1015.2 hPa | 0 mm | - | 5 W/m² | - |
| 1787396335 | 16.67° C | 99% | 1015.1 hPa | 0 mm | - | 3 W/m² | - |
| 1787396029 | 16.67° C | 99% | 1014.9 hPa | 0 mm | - | 1 W/m² | - |
| 1787395724 | 16.67° C | 99% | 1015.2 hPa | 0 mm | - | 0 W/m² | - |
| 1787395419 | 16.67° C | 99% | 1015.2 hPa | 0 mm | - | 0 W/m² | - |
| 1787395119 | 16.67° C | 99% | 1015.2 hPa | 0 mm | - | 0 W/m² | - |
| 1787394815 | 16.67° C | 99% | 1014.9 hPa | 0 mm | - | 0 W/m² | - |
| 1787394510 | 16.67° C | 99% | 1015.3 hPa | 0 mm | - | 0 W/m² | - |
| 1787394206 | 16.67° C | 99% | 1015.4 hPa | 0 mm | - | 0 W/m² | - |
| 1787393901 | 16.67° C | 99% | 1015.4 hPa | 0 mm | - | 0 W/m² | - |
| 1787393596 | 16.67° C | 99% | 1015.2 hPa | 0 mm | - | 0 W/m² | - |
| 1787393292 | 16.67° C | 99% | 1015.3 hPa | 0 mm | - | 0 W/m² | - |
| 1787392987 | 17.22° C | 99% | 1015.1 hPa | 0 mm | - | 0 W/m² | - |
| 1787392685 | 17.22° C | 99% | 1015.3 hPa | 0 mm | - | 0 W/m² | - |
* Rain latest hour (hover to see other rain measurements)
** Current wind speed in m/s (hover to see current wind gust speed)